TimeBST,TemperatureF,Dew PointF,Humidity,Sea Level PressureIn,VisibilityMPH,Wind Direction,Wind SpeedMPH,Gust SpeedMPH,PrecipitationIn,Events,Conditions,WindDirDegrees,DateUTC
12:20 AM,53.6,51.8,94,30.06,-9999.0,ESE,2.3,-,N/A,,Clear,110,2013-09-26 23:20:00
12:50 AM,55,51,83,30.06,19,ENE,4.6,,,,,70,2013-09-26 23:50:00
12:50 AM,53.6,50.0,88,30.06,-9999.0,ENE,4.6,-,N/A,,Clear,70,2013-09-26 23:50:00
1:20 AM,51.8,50.0,94,30.06,-9999.0,ENE,3.5,-,N/A,,Clear,70,2013-09-27 00:20:00
1:50 AM,53.6,50.0,88,30.06,-9999.0,ENE,3.5,-,N/A,,Clear,60,2013-09-27 00:50:00
2:20 AM,51.8,50.0,94,30.06,6.2,NE,3.5,-,N/A,,Unknown,50,2013-09-27 01:20:00
2:50 AM,51.8,50.0,94,30.06,6.2,NE,4.6,-,N/A,,Unknown,40,2013-09-27 01:50:00
3:20 AM,51.8,48.2,88,30.06,6.2,Variable,2.3,-,N/A,,Unknown,0,2013-09-27 02:20:00
3:50 AM,51,48,87,30.06,16,North,2.3,,,,,10,2013-09-27 02:50:00
3:50 AM,51.8,48.2,88,30.06,-9999.0,Variable,2.3,-,N/A,,Clear,0,2013-09-27 02:50:00
4:20 AM,51.8,48.2,88,30.04,-9999.0,NE,4.6,-,N/A,,Clear,40,2013-09-27 03:20:00
4:50 AM,51.8,48.2,88,30.04,-9999.0,NE,5.8,-,N/A,,Clear,40,2013-09-27 03:50:00
5:20 AM,51.8,48.2,88,30.04,-9999.0,NE,3.5,-,N/A,,Clear,50,2013-09-27 04:20:00
5:50 AM,50.0,46.4,87,30.04,-9999.0,NE,2.3,-,N/A,,Clear,50,2013-09-27 04:50:00
6:20 AM,50.0,48.2,94,30.04,-9999.0,NE,4.6,-,N/A,,Clear,50,2013-09-27 05:20:00
6:50 AM,51,48,84,30.04,15,NE,4.6,,,,,50,2013-09-27 05:50:00
6:50 AM,50.0,46.4,87,30.04,-9999.0,ENE,4.6,-,N/A,,Clear,60,2013-09-27 05:50:00
7:20 AM,51.8,48.2,88,30.04,-9999.0,NE,4.6,-,N/A,,Clear,50,2013-09-27 06:20:00
7:50 AM,51.8,50.0,94,30.04,-9999.0,NE,4.6,-,N/A,,Clear,50,2013-09-27 06:50:00
8:20 AM,53.6,50.0,88,30.04,-9999.0,ENE,5.8,-,N/A,,Clear,60,2013-09-27 07:20:00
8:50 AM,55.4,50.0,82,30.04,-9999.0,East,8.1,-,N/A,,Clear,90,2013-09-27 07:50:00
9:20 AM,57.2,50.0,77,30.04,-9999.0,East,10.4,-,N/A,,Clear,90,2013-09-27 08:20:00
9:50 AM,58,50,68,30.04,12,East,12.7,,,,,90,2013-09-27 08:50:00
9:50 AM,57.2,50.0,77,30.04,6.2,East,12.7,-,N/A,,Partly Cloudy,100,2013-09-27 08:50:00
10:20 AM,59.0,51.8,77,30.04,6.2,East,13.8,-,N/A,,Partly Cloudy,100,2013-09-27 09:20:00
10:50 AM,59.0,51.8,77,30.04,6.2,East,15.0,-,N/A,,Partly Cloudy,100,2013-09-27 09:50:00
11:20 AM,60.8,51.8,72,30.04,-9999.0,East,12.7,-,N/A,,Clear,90,2013-09-27 10:20:00
11:50 AM,60.8,50.0,68,30.04,-9999.0,East,11.5,-,N/A,,Clear,90,2013-09-27 10:50:00
12:20 PM,60.8,50.0,68,30.01,-9999.0,East,12.7,-,N/A,,Clear,90,2013-09-27 11:20:00
12:50 PM,63,49,49,30.02,16,East,11.5,,,,,90,2013-09-27 11:50:00
12:50 PM,64.4,50.0,59,30.01,-9999.0,East,12.7,-,N/A,,Clear,90,2013-09-27 11:50:00
1:20 PM,64.4,50.0,59,30.01,-9999.0,East,12.7,-,N/A,,Clear,100,2013-09-27 12:20:00
1:50 PM,64.4,50.0,59,30.01,-9999.0,East,11.5,-,N/A,,Clear,100,2013-09-27 12:50:00
2:20 PM,64.4,50.0,59,29.98,-9999.0,East,12.7,-,N/A,,Clear,90,2013-09-27 13:20:00
2:50 PM,62.6,50.0,63,29.98,-9999.0,East,10.4,-,N/A,,Clear,90,2013-09-27 13:50:00
3:20 PM,64.4,50.0,59,29.98,-9999.0,East,11.5,-,N/A,,Clear,100,2013-09-27 14:20:00
3:50 PM,64,48,46,29.97,25,East,13.8,,,,,90,2013-09-27 14:50:00
3:50 PM,64.4,50.0,59,29.98,-9999.0,East,15.0,-,N/A,,Clear,100,2013-09-27 14:50:00
4:20 PM,62.6,50.0,63,29.95,-9999.0,East,13.8,-,N/A,,Clear,100,2013-09-27 15:20:00
4:50 PM,60.8,50.0,68,29.95,-9999.0,East,12.7,-,N/A,,Clear,100,2013-09-27 15:50:00
5:20 PM,60.8,50.0,68,29.95,-9999.0,East,11.5,-,N/A,,Clear,100,2013-09-27 16:20:00
5:50 PM,59.0,50.0,72,29.95,-9999.0,East,12.7,-,N/A,,Clear,100,2013-09-27 16:50:00
6:20 PM,59.0,50.0,72,29.95,6.2,East,11.5,-,N/A,,Unknown,90,2013-09-27 17:20:00
6:50 PM,57,49,66,29.96,16,East,12.7,,,,,100,2013-09-27 17:50:00
6:50 PM,57.2,50.0,77,29.95,-9999.0,East,11.5,-,N/A,,Clear,100,2013-09-27 17:50:00
7:20 PM,57.2,50.0,77,29.98,-9999.0,East,11.5,-,N/A,,Clear,90,2013-09-27 18:20:00
7:50 PM,57.2,50.0,77,29.98,-9999.0,East,10.4,-,N/A,,Clear,100,2013-09-27 18:50:00
8:20 PM,55.4,50.0,82,29.95,-9999.0,East,11.5,-,N/A,,Clear,90,2013-09-27 19:20:00
8:50 PM,55.4,50.0,82,29.95,-9999.0,ENE,9.2,-,N/A,,Clear,70,2013-09-27 19:50:00
9:20 PM,55.4,50.0,82,29.95,-9999.0,East,8.1,-,N/A,,Clear,80,2013-09-27 20:20:00
9:50 PM,56,50,73,29.95,8,ENE,6.9,,,,,60,2013-09-27 20:50:00
9:50 PM,55.4,50.0,82,29.95,-9999.0,ENE,6.9,-,N/A,,Clear,70,2013-09-27 20:50:00
10:20 PM,55.4,50.0,82,29.95,5.6,ENE,5.8,-,N/A,,Unknown,70,2013-09-27 21:20:00
10:50 PM,55.4,51.8,88,29.95,5.6,ENE,5.8,-,N/A,,Unknown,70,2013-09-27 21:50:00
11:20 PM,53.6,50.0,88,29.92,5.6,ENE,3.5,-,N/A,,Unknown,60,2013-09-27 22:20:00
11:50 PM,53.6,50.0,88,29.95,3.7,ENE,4.6,-,N/A,,Unknown,60,2013-09-27 22:50:00